Benton Harbor, MI

6:43 PM EDT on September 24, 2016 (GMT -0400)
Southwest Michigan Regional

Weather History for KBEH - January, 2013

Change the Weather History Date:

Friday, January 25, 2013

  Actual Average Record
Temperature  
Mean Temperature 22 °F -  
Max Temperature 28 °F 33 °F 68 °F (1950)
Min Temperature 16 °F 19 °F -8 °F (1961)
Degree Days  
Heating Degree Days 43    
Moisture  
Dew Point 15 °F    
Average Humidity 76    
Maximum Humidity 93    
Minimum Humidity 57    
Precipitation  
Precipitation 0.00 in - - ()
Sea Level Pressure  
Sea Level Pressure 30.09 in    
Wind  
Wind Speed 9 mph (SSW)    
Max Wind Speed 20 mph    
Max Gust Speed 28 mph    
Visibility 5 miles    
Events Snow    
Averages and records for this station are not official NWS values.
T = Trace of Precipitation, MM = Missing Value Source: NWS Daily Summary

Daily Weather History Graph

Daily Weather History Graph

Search for Another Location

Airport or City:

Trip Planner

Search our weather history database for the weather conditions in past years. The results will help you decide how hot, cold, wet, or windy it might be!

Date:

Astronomy

Jan. 25, 2013 Rise Set
Actual Time 8:05 AM EST 5:51 PM EST
Civil Twilight 7:34 AM EST 6:21 PM EST
Nautical Twilight 7:00 AM EST 6:55 PM EST
Astronomical Twilight 6:27 AM EST 7:28 PM EST
Moon 4:48 PM EST (1/25) 6:44 AM EST (1/25)
Length of Visible Light 10h 47m
Length of Day
9h 46m
Waxing Gibbous, 98% of the Moon is Illuminated
Jan 25
Waxing Gibbous
Jan 26
Full
Feb 3
Last Quarter
Feb 10
New
Feb 17
First Quarter

Hourly Weather History & Observations

Time (EST) Temp. Windchill Dew Point Humidity Pressure Visibility Wind Dir Wind Speed Gust Speed Precip Events Conditions
12:53 AM 16.0 °F 5.3 °F 3.0 °F 57% 30.44 in 10.0 mi ESE 8.1 mph - N/A   Overcast
1:53 AM 16.0 °F 4.4 °F 3.9 °F 59% 30.42 in 10.0 mi ESE 9.2 mph - N/A   Overcast
2:53 AM 16.0 °F 4.4 °F 3.9 °F 59% 30.38 in 10.0 mi ESE 9.2 mph - N/A   Overcast
3:53 AM 17.1 °F 7.6 °F 6.1 °F 62% 30.34 in 10.0 mi ESE 6.9 mph - N/A   Overcast
4:53 AM 17.1 °F 6.6 °F 7.0 °F 65% 30.29 in 10.0 mi ESE 8.1 mph - N/A   Overcast
5:53 AM 17.1 °F 5.8 °F 8.1 °F 68% 30.24 in 10.0 mi ESE 9.2 mph - N/A   Overcast
6:53 AM 17.1 °F 8.7 °F 9.0 °F 71% 30.23 in 10.0 mi SE 5.8 mph - N/A   Overcast
7:53 AM 18.0 °F 6.1 °F 10.0 °F 71% 30.20 in 4.0 mi SSE 10.4 mph - 0.00 in Snow Light Snow
8:03 AM 17.6 °F 8.2 °F 10.4 °F 73% 30.17 in 1.8 mi SSE 6.9 mph - 0.00 in Snow Light Snow
8:27 AM 17.6 °F 7.3 °F 12.2 °F 79% 30.15 in 0.8 mi SSE 8.1 mph - 0.00 in Snow Light Snow
8:45 AM 17.6 °F 9.3 °F 12.2 °F 79% 30.15 in 1.0 mi SSE 5.8 mph - 0.00 in Snow Light Snow
8:53 AM 17.1 °F 6.6 °F 12.9 °F 84% 30.18 in 1.0 mi SSE 8.1 mph - 0.00 in Snow Light Snow
9:11 AM 17.6 °F 8.2 °F 12.2 °F 79% 30.14 in 1.5 mi SSE 6.9 mph - 0.00 in Snow Light Snow
9:23 AM 17.6 °F 7.3 °F 12.2 °F 79% 30.13 in 2.5 mi SSE 8.1 mph - 0.00 in Snow Light Snow
9:53 AM 18.0 °F 7.7 °F 14.0 °F 84% 30.16 in 2.0 mi SSE 8.1 mph - 0.00 in Snow Light Snow
10:14 AM 17.6 °F 10.7 °F 12.2 °F 79% 30.12 in 3.0 mi South 4.6 mph - 0.00 in Snow Light Snow
10:53 AM 19.0 °F 8.2 °F 12.9 °F 77% 30.14 in 6.0 mi South 9.2 mph - 0.00 in   Haze
11:53 AM 19.9 °F 9.3 °F 12.9 °F 74% 30.12 in 10.0 mi South 9.2 mph - N/A   Overcast
12:41 PM 21.2 °F 10.1 °F 14.0 °F 74% 30.05 in 10.0 mi South 10.4 mph - N/A   Overcast
12:53 PM 21.0 °F 11.4 °F 14.0 °F 74% 30.06 in 8.0 mi South 8.1 mph 16.1 mph N/A   Overcast
1:53 PM 21.9 °F 12.5 °F 15.1 °F 75% 30.04 in 4.0 mi South 8.1 mph - N/A   Haze
2:07 PM 21.2 °F 12.6 °F 15.8 °F 80% 30.00 in 2.0 mi South 6.9 mph - 0.00 in Snow Light Snow
2:29 PM 21.2 °F 13.6 °F 15.8 °F 80% 29.99 in 3.0 mi SSW 5.8 mph - 0.00 in   Haze
2:37 PM 21.2 °F 11.7 °F 15.8 °F 80% 29.98 in 2.5 mi SSW 8.1 mph - 0.00 in   Haze
2:53 PM 21.9 °F 13.4 °F 16.0 °F 78% 30.01 in 2.5 mi SSW 6.9 mph - 0.00 in   Haze
3:06 PM 21.2 °F 11.7 °F 15.8 °F 80% 29.97 in 3.0 mi SSW 8.1 mph - N/A   Haze
3:49 PM 23.0 °F 13.9 °F 15.8 °F 74% 29.98 in 2.0 mi SSW 8.1 mph - N/A   Haze
3:53 PM 23.0 °F 13.1 °F 16.0 °F 74% 30.01 in 2.0 mi South 9.2 mph - N/A   Haze
4:04 PM 23.0 °F 14.7 °F 17.6 °F 80% 29.98 in 1.8 mi South 6.9 mph - 0.00 in Snow Light Snow
4:18 PM 21.2 °F 10.9 °F 17.6 °F 86% 29.98 in 1.0 mi SSW 9.2 mph - 0.00 in Snow Light Snow
4:53 PM 21.9 °F 13.4 °F 18.0 °F 85% 30.01 in 1.0 mi South 6.9 mph - 0.00 in Snow Light Snow
5:12 PM 21.2 °F 14.9 °F 19.4 °F 93% 29.98 in 1.0 mi SSW 4.6 mph - 0.00 in Snow Light Snow
5:23 PM 23.0 °F 15.8 °F 19.4 °F 86% 29.98 in 2.0 mi SSW 5.8 mph - 0.00 in Snow Light Snow
5:33 PM 24.8 °F 11.9 °F 19.4 °F 80% 29.98 in 4.0 mi WSW 16.1 mph 19.6 mph 0.00 in   Haze
5:53 PM 26.1 °F 14.0 °F 21.0 °F 81% 30.01 in 4.0 mi WSW 15.0 mph 26.5 mph 0.00 in Snow Light Snow
6:04 PM 26.6 °F 13.8 °F 19.4 °F 74% 29.98 in 6.0 mi WSW 17.3 mph - 0.00 in   Haze
6:53 PM 26.1 °F 12.3 °F 21.0 °F 81% 30.02 in 4.0 mi West 19.6 mph 27.6 mph 0.00 in Snow Light Snow
7:49 PM 26.6 °F 14.3 °F 21.2 °F 80% 30.01 in 4.0 mi West 16.1 mph - 0.00 in Snow Light Snow
7:53 PM 27.0 °F 15.2 °F 21.0 °F 78% 30.04 in 4.0 mi West 15.0 mph - 0.00 in Snow Light Snow
8:53 PM 28.0 °F 20.0 °F 19.9 °F 72% 30.04 in 4.0 mi WNW 8.1 mph 17.3 mph 0.00 in Snow Light Snow
9:34 PM 26.6 °F 19.1 °F 21.2 °F 80% 30.01 in 2.5 mi WNW 6.9 mph - 0.00 in Snow Light Snow
9:41 PM 26.6 °F 15.7 °F 19.4 °F 74% 30.02 in 5.0 mi WNW 12.7 mph 18.4 mph 0.00 in Snow Light Snow
9:47 PM 26.6 °F 19.1 °F 21.2 °F 80% 30.02 in 2.5 mi WNW 6.9 mph 18.4 mph 0.00 in Snow Light Snow
9:53 PM 27.0 °F 18.0 °F 21.0 °F 78% 30.05 in 2.0 mi WNW 9.2 mph - 0.00 in Snow Light Snow
10:03 PM 26.6 °F 18.2 °F 19.4 °F 74% 30.02 in 5.0 mi WNW 8.1 mph - 0.00 in Snow Light Snow
10:53 PM 28.0 °F 18.6 °F 18.0 °F 66% 30.06 in 10.0 mi WNW 10.4 mph 18.4 mph 0.00 in   Overcast
11:53 PM 27.0 °F 18.0 °F 18.0 °F 69% 30.09 in 10.0 mi NW 9.2 mph 18.4 mph 0.00 in   Overcast